Surface/Precipitation History
01/16/2019 04:41  to  1/17/2019 04:41
Change End Date:
Date/Time
(MDT)
Sf
Temp Chem Water Layer Surface Precipitation
Sfc Pvt Sub Frz Factor Pct Dpth DpthThk IcePct Cond Salin FI Type Intens Accum Rate
01/17/2019 04:38 Ice Watch 24.1F - 29F - 5 - - - - 0 mhos 60 - None None - -
01/17/2019 04:28 Ice Watch 24.3F - 29F - 5 - - - - 0 mhos 59 - None None - -
01/17/2019 04:27 Ice Watch 24.3F - 29F - 5 - - - - 0 mhos 59 - None None - -
01/17/2019 04:18 Ice Watch 24.4F - 29F - 5 - - - - 0 mhos 57 - None None - -
01/17/2019 04:12 Ice Watch 24.3F - 29F - 5 - - - - 0 mhos 57 - None None - -
01/17/2019 04:08 Ice Watch 24.3F - 29F - 5 - - - - 0 mhos 57 - None None - -
01/17/2019 03:58 Ice Watch 24.1F - 29F - 5 - - - - 0 mhos 55 - None None - -
01/17/2019 03:57 Ice Watch 24.1F - 29F - 5 - - - - 0 mhos 55 - None None - -
01/17/2019 03:48 Ice Watch 23.7F - 29F - 5 - - - - 0 mhos 55 - None None - -
01/17/2019 03:42 Ice Watch 23.4F - 29F - 5 - - - - 0 mhos 55 - None None - -
01/17/2019 03:38 Ice Watch 23.2F - 29F - 5 - - - - 0 mhos 54 - None None - -
01/17/2019 03:28 Ice Watch 23.2F - 29F - 5 - - - - 0 mhos 52 - None None - -
01/17/2019 03:27 Ice Watch 23.2F - 29F - 5 - - - - 0 mhos 52 - None None - -
01/17/2019 03:18 Ice Watch 22.8F - 29F - 5 - - - - 0 mhos 50 - None None - -
01/17/2019 03:12 Ice Watch 22.3F - 29F - 5 - - - - 0 mhos 51 - None None - -
Date/Time
(MDT)
Sf
Temp Chem Water Layer Surface Precipitation
Sfc Pvt Sub Frz Factor Pct Dpth DpthThk IcePct Cond Salin FI Type Intens Accum Rate
01/17/2019 03:08 Ice Watch 22.1F - 29F - 5 - - - - 0 mhos 49 - None None - -
01/17/2019 02:58 Ice Watch 21.7F - 29F - 5 - - - - 0 mhos 47 - None None - -
01/17/2019 02:57 Ice Watch 21.7F - 29F - 5 - - - - 0 mhos 47 - None None - -
01/17/2019 02:48 Ice Watch 21.6F - 29F - 5 - - - - 0 mhos 43 - None None - -
01/17/2019 02:43 Ice Watch 21.6F - 29F - 5 - - - - 0 mhos 42 - None None - -
01/17/2019 02:38 Ice Watch 21.9F - 29F - 5 - - - - 0 mhos 39 - None None - -
01/17/2019 02:28 Ice Watch 22.5F - 29F - 5 - - - - 0 mhos 35 - None None - -
01/17/2019 02:27 Ice Watch 22.5F - 29F - 5 - - - - 0 mhos 35 - None None - -
01/17/2019 02:18 Ice Watch 22.5F - 29F - 5 - - - - 0 mhos 33 - None None - -
01/17/2019 02:13 Ice Watch 22.6F - 29F - 5 - - - - 0 mhos 31 - None None - -
01/17/2019 02:08 Ice Watch 23.2F - 29F - 5 - - - - 0 mhos 29 - None None - -
01/17/2019 01:58 Ice Watch 23.5F - 29F - 5 - - - - 0 mhos 27 - None None - -
01/17/2019 01:47 Ice Watch 23.4F - 29F - 5 - - - - 0 mhos 21 - None None - -
01/17/2019 01:43 Ice Watch 23.0F - 29F - 5 - - - - 0 mhos 21 - None None - -
01/17/2019 01:37 Ice Watch 22.5F - 29F - 5 - - - - 0 mhos 19 - None None - -
Date/Time
(MDT)
Sf
Temp Chem Water Layer Surface Precipitation
Sfc Pvt Sub Frz Factor Pct Dpth DpthThk IcePct Cond Salin FI Type Intens Accum Rate
01/17/2019 01:28 Ice Watch 21.7F - 29F - 5 - - - - 0 mhos 15 - None None - -
01/17/2019 01:27 Ice Watch 21.7F - 29F - 5 - - - - 0 mhos 15 - None None - -
01/17/2019 01:17 Ice Watch 21.6F - 29F - 5 - - - - 0 mhos 13 - None None - -
01/17/2019 01:13 Ice Watch 21.6F - 29F - 5 - - - - 0 mhos 12 - None None - -
01/17/2019 01:07 Ice Watch 21.7F - 29F - 5 - - - - 0 mhos 11 - None None - -
01/17/2019 00:58 Ice Watch 22.1F - 29F - 5 - - - - 0 mhos 8 - None None - -
01/17/2019 00:57 Ice Watch 22.1F - 29F - 5 - - - - 0 mhos 8 - None None - -
01/17/2019 00:47 Ice Watch 22.5F - 29F - 5 - - - - 0 mhos 7 - None None - -
01/17/2019 00:43 Ice Watch 22.3F - 29F - 5 - - - - 0 mhos 6 - None None - -
01/17/2019 00:37 Ice Watch 22.3F - 29F - 5 - - - - 0 mhos 5 - None None - -
01/17/2019 00:28 Ice Watch 22.3F - 29F - 5 - - - - 0 mhos 5 - None None - -
01/17/2019 00:27 Ice Watch 22.5F - 29F - 5 - - - - 0 mhos 5 - None None - -
01/17/2019 00:17 Ice Watch 22.5F - 29F - 5 - - - - 0 mhos 4 - None None - -
01/17/2019 00:13 Ice Watch 22.6F - 29F - 5 - - - - 0 mhos 4 - None None - -
01/17/2019 00:07 Ice Watch 22.6F - 29F - 5 - - - - 0 mhos 4 - None None - -
Date/Time
(MDT)
Sf
Temp Chem Water Layer Surface Precipitation
Sfc Pvt Sub Frz Factor Pct Dpth DpthThk IcePct Cond Salin FI Type Intens Accum Rate
01/16/2019 23:58 Ice Watch 22.8F - 29F - 5 - - - - 0 mhos 3 - None None - -
01/16/2019 23:57 Ice Watch 22.8F - 29F - 5 - - - - 0 mhos 3 - None None - -
01/16/2019 23:47 Ice Watch 23.5F - 29F - 5 - - - - 0 mhos 3 - None None - -
01/16/2019 23:43 Ice Watch 23.7F - 29F - 5 - - - - 0 mhos 3 - None None - -
01/16/2019 23:37 Ice Watch 23.5F - 29F - 5 - - - - 0 mhos 3 - None None - -
01/16/2019 23:27 Ice Watch 23.2F - 29F - 5 - - - - 0 mhos 2 - None None - -
01/16/2019 23:26 Ice Watch 23.4F - 29F - 5 - - - - 0 mhos 2 - None None - -
01/16/2019 23:17 Ice Watch 23.5F - 29F - 5 - - - - 0 mhos 2 - None None - -
01/16/2019 23:13 Ice Watch 23.7F - 29F - 5 - - - - 0 mhos 2 - None None - -
01/16/2019 23:07 Ice Watch 23.7F - 29F - 5 - - - - 0 mhos 2 - None None - -
01/16/2019 22:58 Ice Watch 23.9F - 29F - 5 - - - - 0 mhos 1 - None None - -
01/16/2019 22:57 Ice Watch 24.1F - 29F - 5 - - - - 0 mhos 1 - None None - -
01/16/2019 22:47 Ice Watch 24.3F - 29F - 5 - - - - 0 mhos 1 - None None - -
01/16/2019 22:43 Ice Watch 24.4F - 29F - 5 - - - - 0 mhos 1 - None None - -
01/16/2019 22:37 Ice Watch 24.4F - 29F - 5 - - - - 0 mhos 1 - None None - -
Date/Time
(MDT)
Sf
Temp Chem Water Layer Surface Precipitation
Sfc Pvt Sub Frz Factor Pct Dpth DpthThk IcePct Cond Salin FI Type Intens Accum Rate
01/16/2019 22:28 Ice Watch 24.6F - 29F - 5 - - - - 0 mhos 1 - None None - -
01/16/2019 22:27 Ice Watch 24.6F - 29F - 5 - - - - 0 mhos 1 - None None - -
01/16/2019 22:16 Ice Watch 25.2F - 29F - 5 - - - - 0 mhos 1 - None None - -
01/16/2019 22:13 Ice Watch 25.2F - 29F - 5 - - - - 0 mhos 1 - None None - -
01/16/2019 22:06 Ice Watch 25.3F - 29F - 5 - - - - 0 mhos 1 - None None - -
01/16/2019 21:58 Ice Watch 25.7F - 29F - 5 - - - - 0 mhos 1 - None None - -
01/16/2019 21:56 Ice Watch 25.9F - 29F - 5 - - - - 0 mhos 1 - None None - -
01/16/2019 21:46 Ice Watch 26.2F - 29F - 5 - - - - 0 mhos 1 - None None - -
01/16/2019 21:43 Ice Watch 26.6F - 29F - 5 - - - - 0 mhos 1 - None None - -
01/16/2019 21:36 Ice Watch 26.8F - 29F - 5 - - - - 0 mhos 1 - None None - -
01/16/2019 21:28 Ice Watch 27.0F - 29F - 5 - - - - 0 mhos 1 - None None - -
01/16/2019 21:26 Ice Watch 27.0F - 29F - 5 - - - - 0 mhos 1 - None None - -
01/16/2019 21:16 Ice Watch 27.7F - 29F - 5 - - - - 0 mhos 0 - None None - -
01/16/2019 21:13 Ice Watch 27.5F - 29F - 5 - - - - 0 mhos 0 - None None - -
01/16/2019 21:06 Ice Watch 27.5F - 29F - 5 - - - - 0 mhos 0 - None None - -
Date/Time
(MDT)
Sf
Temp Chem Water Layer Surface Precipitation
Sfc Pvt Sub Frz Factor Pct Dpth DpthThk IcePct Cond Salin FI Type Intens Accum Rate
01/16/2019 20:58 Ice Watch 27.5F - 29F - 5 - - - - 0 mhos 0 - None None - -
01/16/2019 20:56 Ice Watch 27.5F - 29F - 5 - - - - 0 mhos 0 - None None - -
01/16/2019 20:46 Ice Watch 27.9F - 29F - 5 - - - - 0 mhos 0 - None None - -
01/16/2019 20:43 Ice Watch 28.0F - 29F - 5 - - - - 0 mhos 0 - None None - -
01/16/2019 20:36 Ice Watch 28.2F - 29F - 5 - - - - 0 mhos 0 - None None - -
01/16/2019 20:28 Ice Watch 28.0F - 29F - 5 - - - - 0 mhos 0 - None None - -
01/16/2019 20:26 Ice Watch 27.9F - 29F - 5 - - - - 0 mhos 0 - None None - -
01/16/2019 20:16 Ice Watch 28.0F - 29F - 5 - - - - 0 mhos 0 - None None - -
01/16/2019 20:13 Ice Watch 27.9F - 29F - 5 - - - - 0 mhos 0 - None None - -
01/16/2019 20:06 Ice Watch 27.7F - 29F - 5 - - - - 0 mhos 0 - None None - -
01/16/2019 19:58 Ice Watch 27.5F - 29F - 5 - - - - 0 mhos 0 - None None - -
01/16/2019 19:56 Ice Watch 27.5F - 29F - 5 - - - - 0 mhos 0 - None None - -
01/16/2019 19:46 Ice Watch 27.0F - 29F - 5 - - - - 0 mhos 0 - None None - -
01/16/2019 19:43 Ice Watch 26.8F - 29F - 5 - - - - 0 mhos 0 - None None - -
01/16/2019 19:36 Ice Watch 26.8F - 29F - 5 - - - - 0 mhos 0 - None None - -
Date/Time
(MDT)
Sf
Temp Chem Water Layer Surface Precipitation
Sfc Pvt Sub Frz Factor Pct Dpth DpthThk IcePct Cond Salin FI Type Intens Accum Rate
01/16/2019 19:28 Ice Watch 27.0F - 28F - 5 - - - - 0 mhos 0 - None None - -
01/16/2019 19:26 Ice Watch 27.1F - 28F - 5 - - - - 0 mhos 0 - None None - -
01/16/2019 19:16 Ice Watch 27.5F - 28F - 5 - - - - 0 mhos 0 - None None - -
01/16/2019 19:13 Ice Watch 27.3F - 28F - 5 - - - - 0 mhos 0 - None None - -
01/16/2019 19:06 Ice Watch 27.7F - 28F - 5 - - - - 0 mhos 0 - None None - -
01/16/2019 18:58 Ice Watch 28.0F - 28F - 5 - - - - 0 mhos 0 - None None - -
01/16/2019 18:56 Ice Watch 28.0F - 28F - 5 - - - - 0 mhos 0 - None None - -
01/16/2019 18:46 Ice Watch 28.6F - 28F - 5 - - - - 0 mhos 0 - None None - -
01/16/2019 18:43 Ice Watch 28.8F - 28F - 5 - - - - 0 mhos 0 - None None - -
01/16/2019 18:36 Ice Watch 28.6F - 28F - 5 - - - - 0 mhos 0 - None None - -
01/16/2019 18:28 Ice Watch 28.9F - 28F - 5 - - - - 0 mhos 0 - None None - -
01/16/2019 18:26 Ice Watch 28.9F - 28F - 5 - - - - 0 mhos 0 - None None - -
01/16/2019 18:16 Ice Watch 29.1F - 28F - 5 - - - - 0 mhos 0 - None None - -
01/16/2019 18:13 Ice Watch 29.1F - 28F - 5 - - - - 0 mhos 0 - None None - -
01/16/2019 18:05 Ice Watch 28.9F - 28F - 5 - - - - 0 mhos 0 - None None - -
Date/Time
(MDT)
Sf
Temp Chem Water Layer Surface Precipitation
Sfc Pvt Sub Frz Factor Pct Dpth DpthThk IcePct Cond Salin FI Type Intens Accum Rate
01/16/2019 17:58 Ice Watch 28.4F - 28F - 5 - - - - 0 mhos 0 - None None - -
01/16/2019 17:55 Ice Watch 28.2F - 28F - 5 - - - - 0 mhos 0 - None None - -
01/16/2019 17:45 Ice Watch 28.8F - 28F - 5 - - - - 0 mhos 0 - None None - -
01/16/2019 17:42 Ice Watch 29.3F - 28F - 5 - - - - 0 mhos 0 - None None - -
01/16/2019 17:35 Ice Watch 28.9F - 28F - 5 - - - - 0 mhos 0 - None None - -
01/16/2019 17:28 Ice Watch 29.5F - 28F - 5 - - - - 0 mhos 0 - None None - -
01/16/2019 17:25 Ice Watch 29.5F - 28F - 5 - - - - 0 mhos 0 - None None - -
01/16/2019 17:15 Ice Watch 30.2F - 28F - 5 - - - - 0 mhos 0 - None None - -
01/16/2019 17:12 Ice Watch 30.0F - 28F - 5 - - - - 0 mhos 0 - None None - -
01/16/2019 17:05 Ice Watch 30.6F - 28F - 5 - - - - 0 mhos 0 - None None - -
01/16/2019 16:58 Ice Warning 31.6F - 28F 32F 5 0% - - 100% 0 mhos 0 - None None - -
01/16/2019 16:55 Ice Warning 32.0F - 28F 32F 5 0% - - 100% 0 mhos 0 - None None - -
01/16/2019 16:45 Wet 32.9F - 28F 32F 5 0% 0.00 in - 0% 0 mhos 0 - None None - -
01/16/2019 16:42 Wet 33.4F - 28F 32F 5 0% 0.00 in - 0% 0 mhos 0 - None None - -
01/16/2019 16:35 Wet 34.0F - 28F 32F 5 0% 0.00 in - 0% 0 mhos 0 - None None - -
Date/Time
(MDT)
Sf
Temp Chem Water Layer Surface Precipitation
Sfc Pvt Sub Frz Factor Pct Dpth DpthThk IcePct Cond Salin FI Type Intens Accum Rate
01/16/2019 16:27 Wet 34.9F - 27F 32F 5 0% 0.00 in - 0% 0 mhos 0 - None None - -
01/16/2019 16:25 Wet 35.1F - 27F 32F 5 0% 0.00 in - 0% 0 mhos 0 - None None - -
01/16/2019 16:15 Wet 36.5F - 27F 32F 5 0% 0.00 in - 0% 0 mhos 0 - None None - -
01/16/2019 16:12 Wet 36.7F - 27F 32F 5 0% 0.00 in - 0% 0 mhos 0 - None None - -
01/16/2019 16:05 Wet 37.4F - 27F 32F 5 0% 0.00 in - 0% 0 mhos 0 - None None - -
01/16/2019 15:57 Wet 37.8F - 27F 32F 5 0% 0.00 in - 0% 0 mhos 0 - None None - -
01/16/2019 15:55 Wet 37.9F - 27F 32F 5 0% 0.00 in - 0% 0 mhos 0 - None None - -
01/16/2019 15:45 Wet 38.7F - 27F 32F 5 0% 0.00 in - 0% 0 mhos 0 - None None - -
01/16/2019 15:42 Wet 38.7F - 27F 32F 5 0% 0.00 in - 0% 0 mhos 0 - None None - -
01/16/2019 15:35 Wet 39.9F - 27F 32F 5 0% 0.00 in - 0% 0 mhos 0 - None None - -
01/16/2019 15:27 Wet 41.7F - 27F 32F 5 0% 0.00 in - 0% 0 mhos 0 - None None - -
01/16/2019 15:25 Wet 42.4F - 27F 32F 5 0% 0.00 in - 0% 0 mhos 0 - None None - -
01/16/2019 15:15 Wet 41.7F - 27F 32F 5 0% 0.00 in - 0% 0 mhos 0 - None None - -
01/16/2019 15:12 Wet 43.0F - 27F 32F 5 0% 0.00 in - 0% 0 mhos 0 - None None - -
01/16/2019 15:05 Wet 42.4F - 27F 32F 5 0% 0.00 in - 0% 0 mhos 0 - None None - -
Date/Time
(MDT)
Sf
Temp Chem Water Layer Surface Precipitation
Sfc Pvt Sub Frz Factor Pct Dpth DpthThk IcePct Cond Salin FI Type Intens Accum Rate
01/16/2019 14:57 Wet 43.2F - 27F 32F 5 0% 0.00 in - 0% 0 mhos 0 - None None - -
01/16/2019 14:55 Wet 42.8F - 27F 32F 5 0% 0.00 in - 0% 0 mhos 0 - None None - -
01/16/2019 14:45 Wet 43.7F - 27F 32F 5 0% 0.00 in - 0% 0 mhos 0 - None None - -
01/16/2019 14:42 Wet 44.2F - 27F 32F 5 0% 0.00 in - 0% 0 mhos 0 - None None - -
01/16/2019 14:35 Wet 44.4F - 27F 32F 5 0% 0.00 in - 0% 0 mhos 0 - None None - -
01/16/2019 14:27 Wet 43.3F - 27F 32F 5 0% 0.00 in - 0% 0 mhos 0 - None None - -
01/16/2019 14:25 Wet 43.2F - 26F 32F 5 0% 0.00 in - 0% 0 mhos 0 - None None - -
01/16/2019 14:15 Wet 46.4F - 26F 32F 5 0% 0.00 in - 0% 0 mhos 0 - None None - -
01/16/2019 14:12 Wet 46.8F - 26F 32F 5 0% 0.00 in - 0% 0 mhos 0 - None None - -
01/16/2019 14:05 Wet 46.8F - 26F 32F 5 0% 0.00 in - 0% 0 mhos 0 - None None - -
01/16/2019 13:57 Wet 47.5F - 26F 32F 5 0% 0.00 in - 0% 0 mhos 0 - None None - -
01/16/2019 13:55 Wet 47.5F - 26F 32F 5 0% 0.00 in - 0% 0 mhos 0 - None None - -
01/16/2019 13:45 Wet 47.3F - 26F 32F 5 0% 0.00 in - 0% 0 mhos 0 - None None - -
01/16/2019 13:42 Wet 46.8F - 26F 32F 5 0% 0.00 in - 0% 0 mhos 0 - None None - -
01/16/2019 13:35 Wet 45.9F - 26F 32F 5 0% 0.00 in - 0% 0 mhos 0 - None None - -
Date/Time
(MDT)
Sf
Temp Chem Water Layer Surface Precipitation
Sfc Pvt Sub Frz Factor Pct Dpth DpthThk IcePct Cond Salin FI Type Intens Accum Rate
01/16/2019 13:27 Wet 46.8F - 26F 32F 5 0% 0.00 in - 0% 0 mhos 0 - None None - -
01/16/2019 13:24 Wet 46.4F - 26F 32F 5 0% 0.00 in - 0% 0 mhos 0 - None None - -
01/16/2019 13:14 Wet 45.3F - 26F 32F 5 0% 0.00 in - 0% 0 mhos 0 - None None - -
01/16/2019 13:12 Wet 45.1F - 26F 32F 5 0% 0.00 in - 0% 0 mhos 0 - None None - -
01/16/2019 13:04 Wet 44.2F - 26F 32F 5 0% 0.00 in - 0% 0 mhos 0 - None None - -
01/16/2019 12:57 Wet 43.2F - 26F 32F 5 0% 0.00 in - 0% 0 mhos 0 - None None - -
01/16/2019 12:54 Wet 42.3F - 26F 32F 5 0% 0.00 in - 0% 0 mhos 0 - None None - -
01/16/2019 12:44 Wet 42.6F - 26F 32F 5 0% 0.00 in - 0% 0 mhos 0 - None None - -
01/16/2019 12:42 Wet 42.6F - 26F 32F 5 0% 0.00 in - 0% 0 mhos 0 - None None - -
01/16/2019 12:34 Wet 42.4F - 26F 32F 5 0% 0.00 in - 0% 0 mhos 0 - None None - -
01/16/2019 12:28 Wet 41.4F - 26F 32F 5 0% 0.00 in - 0% 0 mhos 0 - None None - -
01/16/2019 12:24 Wet 41.2F - 26F 32F 5 0% 0.00 in - 0% 0 mhos 0 - None None - -
01/16/2019 12:14 Wet 39.0F - 26F 32F 5 0% 0.00 in - 0% 0 mhos 0 - None None - -
01/16/2019 12:12 Wet 38.7F - 26F 32F 5 0% 0.00 in - 0% 0 mhos 0 - None None - -
01/16/2019 12:04 Wet 40.3F - 26F 32F 5 0% 0.00 in - 0% 0 mhos 0 - None None - -
Date/Time
(MDT)
Sf
Temp Chem Water Layer Surface Precipitation
Sfc Pvt Sub Frz Factor Pct Dpth DpthThk IcePct Cond Salin FI Type Intens Accum Rate
01/16/2019 11:57 Wet 39.9F - 26F 32F 5 0% 0.00 in - 0% 0 mhos 0 - None None - -
01/16/2019 11:54 Wet 39.9F - 26F 32F 5 0% 0.00 in - 0% 0 mhos 0 - None None - -
01/16/2019 11:44 Wet 40.5F - 26F 32F 5 0% 0.00 in - 0% 0 mhos 0 - None None - -
01/16/2019 11:42 Wet 41.2F - 26F 32F 5 0% 0.00 in - 0% 0 mhos 0 - None None - -
01/16/2019 11:34 Wet 40.1F - 26F 32F 5 0% 0.00 in - 0% 0 mhos 0 - None None - -
01/16/2019 11:27 Wet 39.0F - 26F 32F 5 0% 0.00 in - 0% 0 mhos 1 - None None - -
01/16/2019 11:24 Wet 38.3F - 26F 32F 5 0% 0.00 in - 0% 0 mhos 1 - None None - -
01/16/2019 11:14 Wet 35.2F - 26F 32F 5 0% 0.00 in - 0% 0 mhos 3 - None None - -
01/16/2019 11:12 Wet 34.9F - 26F 32F 5 0% 0.00 in - 0% 0 mhos 3 - None None - -
01/16/2019 11:04 Wet 34.0F - 26F 32F 5 0% 0.00 in - 0% 0 mhos 5 - None None - -
01/16/2019 10:57 Wet 33.8F - 26F 32F 5 0% 0.00 in - 0% 0 mhos 7 - None None - -
01/16/2019 10:54 Wet 33.6F - 26F 32F 5 0% 0.00 in - 0% 0 mhos 8 - None None - -
01/16/2019 10:44 Wet 32.5F - 26F 32F 5 0% 0.00 in - 0% 0 mhos 13 - None None - -
01/16/2019 10:42 Wet 32.4F - 26F 32F 5 0% 0.00 in - 0% 0 mhos 14 - None None - -
01/16/2019 10:34 Ice Warning 30.7F - 26F 32F 5 0% - - 99% 0 mhos 20 - None None - -
Date/Time
(MDT)
Sf
Temp Chem Water Layer Surface Precipitation
Sfc Pvt Sub Frz Factor Pct Dpth DpthThk IcePct Cond Salin FI Type Intens Accum Rate
01/16/2019 10:27 Ice Warning 29.3F - 26F 32F 5 0% - - 100% 0 mhos 26 - None None - -
01/16/2019 10:24 Ice Warning 28.6F - 26F 32F 5 0% - - 100% 0 mhos 30 - None None - -
01/16/2019 10:14 Ice Warning 27.1F - 26F 32F 5 0% - - 100% 0 mhos 44 - None None - -
01/16/2019 10:12 Ice Warning 27.0F - 26F 32F 5 0% - - 99% 0 mhos 46 - None None - -
01/16/2019 10:04 Ice Warning 26.1F - 26F 32F 5 0% - - 99% 0 mhos 60 - None None - -
01/16/2019 09:57 Ice Warning 25.2F - 26F 32F 5 0% - - 99% 0 mhos 76 - None None - -
01/16/2019 09:54 Ice Warning 24.8F - 26F 32F 5 0% - - 99% 0 mhos 82 - None None - -
01/16/2019 09:44 Ice Warning 23.5F - 26F 32F 5 0% - - 99% 1 mhos 106 - None None - -
01/16/2019 09:43 Ice Warning 23.5F - 26F 32F 5 0% - - 99% 1 mhos 110 - None None - -
01/16/2019 09:34 Ice Warning 22.3F - 26F 32F 5 0% - - 99% 1 mhos 130 - None None - -
01/16/2019 09:27 Ice Warning 21.4F - 26F 32F 5 0% - - 99% 1 mhos 146 - None None - -
01/16/2019 09:24 Ice Warning 21.0F - 26F 32F 5 1% - - 99% 1 mhos 151 - None None - -
01/16/2019 09:14 Ice Warning 19.6F - 26F 32F 5 1% - - 99% 1 mhos 172 - None None - -
01/16/2019 09:13 Ice Warning 19.6F - 26F 32F 5 1% - - 99% 1 mhos 173 - None None - -
01/16/2019 09:04 Ice Warning 18.5F - 26F 32F 5 1% - - 99% 1 mhos 192 - None None - -
Date/Time
(MDT)
Sf
Temp Chem Water Layer Surface Precipitation
Sfc Pvt Sub Frz Factor Pct Dpth DpthThk IcePct Cond Salin FI Type Intens Accum Rate
01/16/2019 08:57 Ice Warning 18.0F - 26F 32F 5 1% - - 99% 1 mhos 197 - None None - -
01/16/2019 08:54 Ice Warning 17.4F - 27F 32F 5 1% - - 99% 1 mhos 206 - None None - -
01/16/2019 08:44 Ice Warning 16.7F - 27F 32F 5 1% - - 99% 1 mhos 214 - None None - -
01/16/2019 08:43 Ice Warning 16.5F - 27F 32F 5 1% - - 99% 1 mhos 217 - None None - -
01/16/2019 08:34 Ice Warning 16.2F - 27F 32F 5 1% - - 99% 1 mhos 217 - None None - -
01/16/2019 08:27 Ice Warning 15.6F - 27F 32F 5 1% - - 99% 1 mhos 223 - None None - -
01/16/2019 08:23 Ice Warning 15.6F - 27F 32F 5 1% - - 99% 1 mhos 222 - None None - -
01/16/2019 08:13 Ice Warning 15.8F - 27F 32F 5 1% - - 99% 1 mhos 218 - None None - -
01/16/2019 08:12 Ice Warning 15.3F - 27F 32F 5 1% - - 99% 1 mhos 224 - None None - -
01/16/2019 08:03 Ice Warning 15.3F - 27F 32F 10 1% - - 99% 1 mhos 221 - None None - -
01/16/2019 07:57 Ice Warning 15.3F - 27F 32F 5 1% - - 99% 1 mhos 218 - None None - -
01/16/2019 07:53 Ice Warning 15.4F - 27F 32F 5 1% - - 99% 1 mhos 213 - None None - -
01/16/2019 07:43 Ice Warning 15.4F - 27F 32F 15 1% - - 99% 1 mhos 206 - None None - -
01/16/2019 07:43 Ice Warning 15.3F - 27F 32F 15 1% - - 99% 1 mhos 213 - None None - -
01/16/2019 07:33 Ice Warning 15.4F - 27F 32F 15 1% - - 99% 0 mhos 194 - None None - -
Date/Time
(MDT)
Sf
Temp Chem Water Layer Surface Precipitation
Sfc Pvt Sub Frz Factor Pct Dpth DpthThk IcePct Cond Salin FI Type Intens Accum Rate
01/16/2019 07:28 Ice Warning 14.9F - 27F 32F 15 1% - - 99% 0 mhos 195 - None None - -
01/16/2019 07:23 Ice Warning 15.1F - 27F 32F 10 1% - - 99% 0 mhos 191 - None None - -
01/16/2019 07:13 Ice Warning 15.1F - 27F 32F 5 1% - - 99% 0 mhos 182 - None None - -
01/16/2019 07:12 Ice Warning 14.9F - 27F 32F 5 1% - - 99% 0 mhos 183 - None None - -
01/16/2019 07:03 Ice Warning 14.9F - 27F 32F 5 1% - - 99% 0 mhos 179 - None None - -
01/16/2019 06:58 Ice Warning 14.9F - 27F 32F 5 1% - - 99% 0 mhos 184 - None None - -
01/16/2019 06:53 Ice Warning 15.3F - 27F 32F 10 1% - - 99% 0 mhos 178 - None None - -
01/16/2019 06:43 Ice Warning 15.3F - 27F 32F 10 1% - - 99% 0 mhos 174 - None None - -
01/16/2019 06:43 Ice Warning 15.3F - 27F 32F 15 1% - - 99% 0 mhos 174 - None None - -
01/16/2019 06:33 Ice Warning 15.8F - 27F 32F 20 1% - - 99% 0 mhos 158 - None None - -
01/16/2019 06:28 Ice Warning 15.3F - 27F 32F 30 1% - - 99% 0 mhos 160 - None None - -
01/16/2019 06:23 Ice Warning 15.3F - 27F 32F 30 1% - - 99% 0 mhos 156 - None None - -
01/16/2019 06:13 Ice Warning 14.7F - 27F 32F 15 1% - - 99% 0 mhos 154 - None None - -
01/16/2019 06:12 Ice Warning 14.7F - 27F 32F 15 1% - - 99% 0 mhos 154 - None None - -
01/16/2019 06:03 Ice Warning 14.9F - 27F 32F 10 0% - - 99% 0 mhos 146 - None None - -
Date/Time
(MDT)
Sf
Temp Chem Water Layer Surface Precipitation
Sfc Pvt Sub Frz Factor Pct Dpth DpthThk IcePct Cond Salin FI Type Intens Accum Rate
01/16/2019 05:58 Ice Warning 15.1F - 27F 32F 15 0% - - 99% 0 mhos 141 - None None - -
01/16/2019 05:53 Ice Warning 15.1F - 27F 32F 20 0% - - 99% 0 mhos 137 - None None - -
01/16/2019 05:43 Ice Warning 15.1F - 27F 32F 45 0% - - 99% 0 mhos 131 - None None - -
01/16/2019 05:43 Ice Warning 15.1F - 27F 32F 45 0% - - 99% 0 mhos 131 - None None - -
01/16/2019 05:33 Ice Warning 15.3F - 27F 32F 45 0% - - 99% 0 mhos 122 - None None - -
01/16/2019 05:28 Ice Warning 15.3F - 27F 32F 45 0% - - 99% 0 mhos 117 - None None - -
01/16/2019 05:23 Ice Warning 15.4F - 27F 32F 45 0% - - 99% 0 mhos 112 - None None - -
01/16/2019 05:13 Ice Warning 15.3F - 28F 32F 25 0% - - 100% 0 mhos 106 - None None - -
01/16/2019 05:13 Ice Warning 15.3F - 28F 32F 25 0% - - 100% 0 mhos 106 - None None - -
01/16/2019 05:03 Ice Warning 15.6F - 28F 32F 35 0% - - 100% 0 mhos 95 - None None - -
01/16/2019 04:58 Ice Warning 15.6F - 28F 32F 35 0% - - 100% 0 mhos 90 - None None - -
01/16/2019 04:53 Ice Warning 15.6F - 28F 32F 20 0% - - 100% 0 mhos 85 - None None - -
01/16/2019 04:43 Ice Warning 15.4F - 28F 32F 20 0% - - 100% 0 mhos 77 - None None - -
01/16/2019 04:43 Ice Warning 15.4F - 28F 32F 20 0% - - 100% 0 mhos 77 - None None - -
Change End Date:

Copyright © 1998-2015 Vaisala, Inc.
All Rights Reserved
Send comments about the data to:
SCAN Web ® is a registered trademark of Vaisala, Inc.
SCAN Web Version 6.0